FW6583 Weather Reports


Display with metric or nautical units.
time (UTC)temp
F
wind
direction
speed
MPH
gust
MPH
rain 1hr
in
rain 24hr
in
rain mn
in
humidity
%
barometer
mb
20260503222023 58 314 1.0 3.0 0.00 0.00 0.00 43 1017.6
20260503221553 58 0 1.0 2.0 0.00 0.00 0.00 39 1017.6
20260503221023 58 21 1.0 8.0 0.00 0.00 0.00 40 1017.8
20260503220523 58 18 2.0 8.0 0.00 0.00 0.00 40 1017.6
20260503220047 58 23 1.0 5.0 0.00 0.00 0.00 38 1017.7
20260503215523 58 269 1.0 3.0 0.00 0.00 0.00 40 1017.6
20260503215024 58 38 1.0 5.0 0.00 0.00 0.00 38 1017.6
20260503214539 58 294 1.0 5.0 0.00 0.00 0.00 39 1017.6
20260503214023 58 205 1.0 5.0 0.00 0.00 0.00 39 1017.4
20260503213523 58 283 1.0 5.0 0.00 0.00 0.00 39 1017.5
20260503213042 58 11 2.0 5.0 0.00 0.00 0.00 39 1017.5
20260503212525 58 290 2.0 5.0 0.00 0.00 0.00 39 1017.6
20260503212026 58 314 2.0 4.0 0.00 0.00 0.00 38 1017.6
20260503211546 58 341 1.0 4.0 0.00 0.00 0.00 38 1017.6
20260503211025 58 257 2.0 4.0 0.00 0.00 0.00 39 1017.5
20260503210526 59 344 1.0 4.0 0.00 0.00 0.00 39 1017.5
20260503210043 58 264 1.0 4.0 0.00 0.00 0.00 38 1017.6
20260503205528 58 34 1.0 6.0 0.00 0.00 0.00 40 1017.8
20260503205027 59 321 2.0 6.0 0.00 0.00 0.00 37 1017.8
20260503204546 59 298 2.0 6.0 0.00 0.00 0.00 37 1017.8
20260503204026 59 26 2.0 5.0 0.00 0.00 0.00 36 1017.8
20260503203523 59 24 1.0 4.0 0.00 0.00 0.00 38 1017.7
20260503203054 58 48 1.0 5.0 0.00 0.00 0.00 37 1018.0
20260503202526 58 305 1.0 6.0 0.00 0.00 0.00 37 1018.1
20260503202028 59 17 3.0 6.0 0.00 0.00 0.00 36 1018.1
20260503201549 59 272 2.0 6.0 0.00 0.00 0.00 39 1018.1
20260503201023 59 18 3.0 6.0 0.00 0.00 0.00 36 1018.2
20260503200526 58 328 2.0 6.0 0.00 0.00 0.00 37 1018.3
20260503200039 58 331 2.0 6.0 0.00 0.00 0.00 39 1018.4
20260503195525 58 305 3.0 6.0 0.00 0.00 0.00 36 1018.3
20260503195027 58 342 1.0 6.0 0.00 0.00 0.00 36 1018.5
20260503194555 58 262 3.0 6.0 0.00 0.00 0.00 37 1018.7
20260503194026 58 307 3.0 5.0 0.00 0.00 0.00 39 1018.6
20260503193530 58 307 2.0 4.0 0.00 0.00 0.00 37 1018.8
20260503193045 58 0 1.0 9.0 0.00 0.00 0.00 37 1018.9
20260503192525 58 285 3.0 9.0 0.00 0.00 0.00 39 1018.8
20260503192026 57 342 1.0 5.0 0.00 0.00 0.00 38 1018.9
20260503191547 57 34 2.0 5.0 0.00 0.00 0.00 37 1019.0
20260503191027 57 305 3.0 5.0 0.00 0.00 0.00 38 1019.1
20260503190527 56 259 2.0 5.0 0.00 0.00 0.00 39 1019.2
20260503190047 55 247 2.0 5.0 0.00 0.00 0.00 38 1019.2
20260503185523 55 1 1.0 3.0 0.00 0.00 0.00 40 1019.2
20260503185026 55 41 2.0 4.0 0.00 0.00 0.00 41 1019.1
20260503184543 56 19 1.0 7.0 0.00 0.00 0.00 39 1019.3
20260503184029 56 41 2.0 7.0 0.00 0.00 0.00 39 1019.5
20260503183522 57 16 3.0 6.0 0.00 0.00 0.00 39 1019.4
20260503183039 56 109 1.0 5.0 0.00 0.00 0.00 39 1019.4
20260503182525 56 35 2.0 5.0 0.00 0.00 0.00 41 1019.6
20260503182026 56 35 1.0 4.0 0.00 0.00 0.00 39 1019.7
20260503181547 57 293 2.0 6.0 0.00 0.00 0.00 38 1019.8
20260503181027 56 167 2.0 6.0 0.00 0.00 0.00 38 1019.7
20260503180527 57 344 2.0 5.0 0.00 0.00 0.00 40 1019.8
20260503180057 56 154 2.0 5.0 0.00 0.00 0.00 40 1019.9
20260503175526 55 14 3.0 5.0 0.00 0.00 0.00 39 1020.0
20260503175026 55 36 3.0 7.0 0.00 0.00 0.00 39 1020.1
20260503174545 54 305 2.0 7.0 0.00 0.00 0.00 40 1020.1
20260503174027 54 62 3.0 6.0 0.00 0.00 0.00 38 1020.3
20260503173527 54 292 2.0 6.0 0.00 0.00 0.00 38 1020.2
20260503173044 54 23 2.0 5.0 0.00 0.00 0.00 41 1020.2
20260503172526 54 231 2.0 9.0 0.00 0.00 0.00 41 1020.3
20260503172028 53 28 2.0 9.0 0.00 0.00 0.00 42 1020.4
20260503171546 53 341 3.0 9.0 0.00 0.00 0.00 41 1020.4
20260503171026 53 54 2.0 6.0 0.00 0.00 0.00 42 1020.4
20260503170527 53 304 1.0 5.0 0.00 0.00 0.00 42 1020.4
20260503150525 47 8 2.0 5.0 0.00 0.00 0.00 56 1021.3
20260503131028 39 0 0.0 1.0 0.00 0.00 0.00 82 1021.5
20260503130527 39 249 0.0 1.0 0.00 0.00 0.00 84 1021.5
20260503110524 34 0 0.0 1.0 0.00 0.00 0.00 93 1020.8
20260503081538 35 0 0.0 0.0 0.00 0.00 0.00 90 1019.9
20260503081026 35 0 0.0 0.0 0.00 0.00 0.00 90 1019.8
20260503080523 35 0 0.0 0.0 0.00 0.00 0.00 89 1019.8
20260503072525 36 0 0.0 0.0 0.00 0.00 0.00 87 1019.3
20260503072023 36 0 0.0 0.0 0.00 0.00 0.00 86 1019.3
20260503071556 36 0 0.0 0.0 0.00 0.00 0.00 87 1019.3
20260503071025 37 0 0.0 0.0 0.00 0.00 0.00 86 1019.3
20260503070527 37 0 0.0 0.0 0.00 0.00 0.00 86 1019.4
20260503055023 38 0 0.0 1.0 0.00 0.00 0.00 83 1019.3
20260503054557 38 0 0.0 1.0 0.00 0.00 0.00 84 1019.3
20260503054024 38 0 0.0 1.0 0.00 0.00 0.00 84 1019.3
20260503053524 39 0 0.0 1.0 0.00 0.00 0.00 84 1019.3
20260503053042 39 0 0.0 1.0 0.00 0.00 0.00 84 1019.2
20260503052525 39 0 0.0 1.0 0.00 0.00 0.00 84 1019.2
20260503052026 39 0 0.0 1.0 0.00 0.00 0.00 84 1019.3
20260503051546 39 0 0.0 1.0 0.00 0.00 0.00 84 1019.2
20260503051024 39 0 0.0 0.0 0.00 0.00 0.00 84 1019.2
20260503050524 39 0 0.0 0.0 0.00 0.00 0.00 85 1019.2
20260503050044 39 0 0.0 0.0 0.00 0.00 0.00 85 1019.4
20260503045524 39 0 0.0 0.0 0.00 0.00 0.00 84 1019.3
20260503045027 39 0 0.0 0.0 0.00 0.00 0.00 84 1019.4
20260503044540 39 0 0.0 0.0 0.00 0.00 0.00 85 1019.4
20260503044024 39 0 0.0 0.0 0.00 0.00 0.00 84 1019.4
20260503043526 39 0 0.0 0.0 0.00 0.00 0.00 83 1019.4
20260503043039 39 0 0.0 0.0 0.00 0.00 0.00 83 1019.5
20260503042524 39 0 0.0 0.0 0.00 0.00 0.00 82 1019.5
20260503042024 39 0 0.0 0.0 0.00 0.00 0.00 81 1019.5
20260503041542 39 0 0.0 0.0 0.00 0.00 0.00 80 1019.4
20260503041026 39 0 0.0 0.0 0.00 0.00 0.00 79 1019.3
20260503040524 39 0 0.0 1.0 0.00 0.00 0.00 79 1019.4
20260503040100 39 0 0.0 1.0 0.00 0.00 0.00 78 1019.3
20260503035523 39 0 0.0 1.0 0.00 0.00 0.00 79 1019.4
20260503035023 39 0 0.0 0.0 0.00 0.00 0.00 79 1019.4
20260503034543 39 0 0.0 0.0 0.00 0.00 0.00 79 1019.5
20260503034025 39 0 0.0 0.0 0.00 0.00 0.00 79 1019.6
20260503033523 39 0 0.0 0.0 0.00 0.00 0.00 78 1019.6
20260503033043 39 0 0.0 0.0 0.00 0.00 0.00 78 1019.5
20260503032525 39 0 0.0 0.0 0.00 0.00 0.00 78 1019.4
20260503032023 39 0 0.0 0.0 0.00 0.00 0.00 78 1019.4
20260503031548 39 0 0.0 0.0 0.00 0.00 0.00 78 1019.5
20260503031025 39 0 0.0 0.0 0.00 0.00 0.00 79 1019.5
20260503030524 39 0 0.0 0.0 0.00 0.00 0.00 79 1019.5
20260503030047 39 0 0.0 0.0 0.00 0.00 0.00 80 1019.5
20260503025523 39 0 0.0 0.0 0.00 0.00 0.00 80 1019.5
20260503025024 39 0 0.0 0.0 0.00 0.00 0.00 79 1019.6
20260503024547 40 0 0.0 1.0 0.00 0.00 0.00 78 1019.5
20260503024026 40 0 0.0 1.0 0.00 0.00 0.00 78 1019.6
20260503023523 40 0 0.0 1.0 0.00 0.00 0.00 77 1019.4
20260503023046 40 0 0.0 1.0 0.00 0.00 0.00 76 1019.3
20260503022523 40 0 0.0 1.0 0.00 0.00 0.00 76 1019.4
20260503022023 40 0 0.0 1.0 0.00 0.00 0.00 75 1019.5
20260503021543 40 0 0.0 1.0 0.00 0.00 0.00 75 1019.5
20260503021023 40 0 0.0 1.0 0.00 0.00 0.00 74 1019.6
20260503020523 40 0 0.0 2.0 0.00 0.00 0.00 74 1019.6
20260503020042 40 302 0.0 2.0 0.00 0.00 0.00 74 1019.8
20260503015527 41 304 0.0 2.0 0.00 0.00 0.00 73 1019.6
20260503015025 41 0 0.0 1.0 0.00 0.00 0.00 74 1019.7
20260503014549 41 0 0.0 1.0 0.00 0.00 0.00 73 1019.6
20260503014024 41 0 0.0 1.0 0.00 0.00 0.00 73 1019.5
20260503013523 41 0 0.0 1.0 0.00 0.00 0.00 73 1019.5
20260503013046 41 91 0.0 1.0 0.00 0.00 0.00 73 1019.3
20260503012524 41 53 0.0 2.0 0.00 0.00 0.00 74 1019.2
20260503012026 41 0 1.0 2.0 0.00 0.00 0.00 73 1019.2
20260503011537 41 0 0.0 1.0 0.00 0.00 0.00 74 1019.2
20260503011023 41 40 0.0 2.0 0.00 0.00 0.00 74 1019.3
20260503010523 42 0 0.0 2.0 0.00 0.00 0.00 75 1019.3
20260503010045 42 0 0.0 2.0 0.00 0.00 0.00 75 1019.1
20260503005523 42 0 0.0 2.0 0.00 0.00 0.00 75 1019.2
20260503005024 42 0 0.0 2.0 0.00 0.00 0.00 75 1019.1
20260503004541 42 272 0.0 2.0 0.00 0.00 0.00 74 1019.0
20260503004026 42 0 0.0 1.0 0.00 0.00 0.00 75 1019.0
20260503003524 42 0 0.0 1.0 0.00 0.00 0.00 75 1018.9
20260503003042 42 0 0.0 1.0 0.00 0.00 0.00 74 1018.8
20260503002527 42 309 0.0 2.0 0.00 0.00 0.00 73 1018.8
20260503002024 42 266 0.0 4.0 0.00 0.00 0.00 74 1018.8
20260503001553 43 257 0.0 4.0 0.00 0.00 0.00 73 1018.6
20260503001025 43 289 1.0 4.0 0.00 0.00 0.00 72 1018.5
20260503000523 43 51 1.0 5.0 0.00 0.00 0.00 72 1018.7
20260503000046 43 0 0.0 5.0 0.00 0.00 0.00 72 1018.6
20260502235524 43 32 0.0 3.0 0.00 0.00 0.00 72 1018.5
20260502235023 44 334 1.0 3.0 0.00 0.00 0.00 71 1018.4
20260502234544 44 0 0.0 2.0 0.00 0.00 0.00 71 1018.4
20260502234025 44 85 0.0 2.0 0.00 0.00 0.00 70 1018.4
20260502233523 44 75 1.0 3.0 0.00 0.00 0.00 70 1018.3
20260502233045 44 274 1.0 8.0 0.00 0.00 0.00 70 1018.2
20260502232526 45 83 2.0 8.0 0.00 0.00 0.00 69 1018.2
20260502232023 45 300 0.0 4.0 0.00 0.00 0.00 69 1018.0
20260502231545 45 302 2.0 5.0 0.00 0.00 0.00 68 1018.0
20260502231023 45 293 1.0 5.0 0.00 0.00 0.00 68 1018.0
20260502230523 46 42 1.0 4.0 0.00 0.00 0.00 67 1017.9
20260502230040 46 347 0.0 4.0 0.00 0.00 0.00 67 1017.8
20260502225526 46 33 1.0 5.0 0.00 0.00 0.00 64 1017.7
20260502225027 46 49 1.0 5.0 0.00 0.00 0.00 63 1017.7
20260502224538 47 12 2.0 5.0 0.00 0.00 0.00 62 1017.7
20260502224023 47 318 2.0 5.0 0.00 0.00 0.00 60 1017.7
20260502223524 48 265 1.0 3.0 0.00 0.00 0.00 59 1017.5
20260502223044 48 276 1.0 5.0 0.00 0.00 0.00 58 1017.6
20260502222524 48 13 1.0 5.0 0.00 0.00 0.00 58 1017.5